Stations météo

Publicité
Kleine Brogel, Belgique (6479): Température de l'air & dewpoint: 03.12.2019 13:00:00 - 09.12.2019 13:00:00 (CET)Kleine Brogel, Belgique (6479): Vitesse du vent & gusts: 03.12.2019 13:00:00 - 09.12.2019 13:00:00 (CET)Kleine Brogel, Belgique (6479): Direction du vent: 03.12.2019 13:00:00 - 09.12.2019 13:00:00 (CET)Kleine Brogel, Belgique (6479): reduced air pressure: 03.12.2019 13:00:00 - 09.12.2019 13:00:00 (CET)Kleine Brogel, Belgique (6479): visibility: 03.12.2019 13:00:00 - 09.12.2019 13:00:00 (CET)
Date & Time tt [°C] td [°C] ff [km/h] ff [knt] fx [km/h] fx [knt] dd ppp [hPa] vv [km]
09.12.2019 13:00:00 6,9 5,9 15 8 - - WSW 1000,8 10
09.12.2019 12:00:00 6,1 5,4 14 8 36 19 W 1000,2 5
09.12.2019 11:00:00 6,6 5,1 22 12 36 19 WSW 999,1 10
09.12.2019 10:00:00 6,5 5,6 25 14 - - WSW 997,6 8
09.12.2019 09:00:00 6,5 5,6 29 16 58 31 WSW 996,1 4,0
09.12.2019 08:00:00 6,5 5,4 29 16 50 27 SW 994,7 10
09.12.2019 07:00:00 6,3 4,8 29 16 - - SSW 993,9 10
09.12.2019 06:00:00 6,2 4,5 22 12 47 25 SSW 994,3 18
09.12.2019 05:00:00 7,3 3,3 25 14 43 23 SSW 995,6 20
09.12.2019 04:00:00 7,5 3,2 25 14 - - SSW 996,7 20
09.12.2019 03:00:00 7,3 3,5 29 16 43 23 SSW 997,7 20
09.12.2019 02:00:00 7,3 3,6 29 16 43 23 SW 998,4 20
09.12.2019 01:00:00 7,0 4,0 22 12 - - SSW 998,9 20
09.12.2019 00:00:00 6,5 3,3 25 14 43 23 SW 999,5 20
08.12.2019 23:00:00 7,2 3,5 29 16 43 23 SW 999,8 20
08.12.2019 22:00:00 6,4 3,9 29 16 - - SW 999,8 20
08.12.2019 21:00:00 7,4 3,9 36 19 58 31 SW 1000,0 20
08.12.2019 20:00:00 7,7 5,9 32 18 47 25 SW 1000,7 9
08.12.2019 19:00:00 9,1 4,9 25 14 - - SW 1000,5 20
08.12.2019 18:00:00 8,8 4,3 25 14 40 21 SW 1000,8 20
08.12.2019 17:00:00 9,2 4,4 22 12 47 25 SW 1001,2 20
08.12.2019 16:00:00 10,0 5,0 29 16 - - SW 1001,6 18
08.12.2019 15:00:00 10,4 5,6 25 14 47 25 WSW 1001,7 20
08.12.2019 14:00:00 10,6 6,7 32 18 54 29 WSW 1002,0 20
08.12.2019 13:00:00 10,6 9,0 34 18 - - WSW 1002,1 10
08.12.2019 12:00:00 9,8 9,3 32 18 58 31 SW 1002,3 4,1
08.12.2019 11:00:00 9,6 8,9 32 18 54 29 SW 1002,7 2,7
08.12.2019 10:00:00 9,5 8,3 32 18 - - SW 1002,7 9
08.12.2019 09:00:00 9,2 7,5 32 18 58 31 SW 1003,7 13
08.12.2019 08:00:00 9,3 7,8 32 18 50 27 SSW 1003,1 6
08.12.2019 07:00:00 10,5 6,4 29 16 - - SW 1004,8 20
08.12.2019 06:00:00 10,3 6,0 29 16 50 27 SSW 1005,7 20
08.12.2019 05:00:00 9,5 5,4 29 16 43 23 SSW 1006,8 20
08.12.2019 04:00:00 9,3 5,5 24 13 - - SW 1008,5 10
08.12.2019 03:00:00 9,2 5,3 25 14 43 23 SSW 1009,6 19
08.12.2019 02:00:00 9,0 4,9 25 14 36 19 SSW 1010,6 20
08.12.2019 01:00:00 9,0 4,8 22 12 - - SSW 1011,7 20
08.12.2019 00:00:00 9,0 5,0 22 12 32 18 SW 1013,1 20
07.12.2019 23:00:00 8,9 5,4 22 12 32 18 SSW 1013,7 19
07.12.2019 22:00:00 8,9 5,9 18 10 - - SSW 1014,3 20
07.12.2019 21:00:00 8,6 6,1 14 8 25 14 SW 1015,1 20
07.12.2019 20:00:00 8,6 5,7 14 8 22 12 SW 1015,5 20
07.12.2019 19:00:00 8,4 5,5 14 8 - - SW 1015,7 20
07.12.2019 18:00:00 8,8 4,2 14 8 25 14 SW 1015,5 20
07.12.2019 17:00:00 9,1 5,0 14 8 22 12 SW 1015,5 20
07.12.2019 16:00:00 9,1 5,4 14 8 - - WSW 1015,0 20
07.12.2019 15:00:00 9,3 5,3 14 8 25 14 SW 1014,6 20
07.12.2019 14:00:00 9,6 5,2 18 10 29 16 SW 1014,7 20
07.12.2019 13:00:00 9,4 5,6 14 8 - - WSW 1014,5 20
07.12.2019 12:00:00 9,1 5,9 18 10 29 16 SW 1014,3 20
07.12.2019 11:00:00 8,8 6,0 18 10 25 14 WSW 1014,5 20
07.12.2019 10:00:00 8,6 6,2 18 10 - - WSW 1014,1 20
07.12.2019 09:00:00 8,6 6,3 18 10 32 18 WSW 1013,3 20
07.12.2019 08:00:00 8,5 6,4 18 10 32 18 WSW 1012,7 20
07.12.2019 07:00:00 8,6 6,4 18 10 - - WSW 1012,2 20
07.12.2019 06:00:00 8,8 6,6 22 12 36 19 WSW 1011,2 20
07.12.2019 05:00:00 8,8 6,9 22 12 32 18 WSW 1010,7 20
07.12.2019 04:00:00 8,6 7,2 22 12 - - WSW 1009,7 18
07.12.2019 03:00:00 9,1 7,5 22 12 32 18 WSW 1008,8 19
07.12.2019 02:00:00 9,3 7,6 22 12 40 21 WSW 1007,8 20
07.12.2019 01:00:00 9,1 7,8 25 14 - - WSW 1007,2 20
07.12.2019 00:00:00 8,8 7,8 29 16 47 25 WSW 1006,5 14
06.12.2019 23:00:00 8,0 7,3 29 16 40 21 SW 1005,8 17
06.12.2019 22:00:00 7,5 6,7 25 14 - - SW 1006,0 16
06.12.2019 21:00:00 6,6 5,7 29 16 50 27 SW 1005,8 20
06.12.2019 20:00:00 6,4 5,5 32 18 47 25 SW 1006,2 20
06.12.2019 19:00:00 6,3 5,4 31 17 - - SW 1006,7 3,6
06.12.2019 18:00:00 6,0 5,4 29 16 47 25 SW 1006,8 18
06.12.2019 17:00:00 6,0 5,3 25 14 43 23 SSW 1007,2 9
06.12.2019 16:00:00 5,8 5,2 25 14 - - SSW 1007,7 3,0
06.12.2019 15:00:00 5,9 5,0 25 14 43 23 SSW 1008,5 8
06.12.2019 14:00:00 5,6 4,6 25 14 40 21 SSW 1009,5 8
06.12.2019 13:00:00 5,2 4,3 22 12 - - SSW 1010,6 6
06.12.2019 12:00:00 4,6 3,6 25 14 43 23 SSW 1011,2 8
06.12.2019 11:00:00 3,7 2,8 25 14 43 23 SSW 1012,6 4,0
06.12.2019 10:00:00 3,2 2,2 25 14 - - SSW 1013,1 4,0
06.12.2019 09:00:00 2,8 1,7 22 12 40 21 SSW 1013,5 4,0
06.12.2019 08:00:00 2,5 1,0 25 14 40 21 SSW 1013,7 10
06.12.2019 07:00:00 2,5 0,1 22 12 - - SSW 1014,1 10
06.12.2019 06:00:00 2,5 0,3 25 14 40 21 SSW 1014,3 15
06.12.2019 05:00:00 2,5 0,6 18 10 40 21 SW 1014,7 15
06.12.2019 04:00:00 2,0 0,4 22 12 - - SSW 1015,0 14
06.12.2019 03:00:00 2,0 0,7 22 12 40 21 SSW 1015,8 10
06.12.2019 02:00:00 1,7 0,4 22 12 40 21 SSW 1016,3 8
06.12.2019 01:00:00 1,2 -0,1 22 12 - - SSW 1017,2 10
06.12.2019 00:00:00 1,6 0,0 22 12 36 19 SW 1018,3 11
05.12.2019 23:00:00 1,7 0,3 18 10 32 18 SSW 1018,6 10
05.12.2019 22:00:00 1,2 0,0 14 8 - - SSW 1019,2 8
05.12.2019 21:00:00 1,4 0,2 14 8 32 18 SW 1019,2 7
05.12.2019 20:00:00 1,8 1,2 22 12 32 18 SW 1020,0 5
05.12.2019 19:00:00 2,2 1,1 18 10 - - SSW 1020,2 6
05.12.2019 18:00:00 2,2 0,7 18 10 29 16 SW 1020,7 7
05.12.2019 17:00:00 2,7 0,9 14 8 32 18 SW 1021,1 3,3
05.12.2019 16:00:00 3,3 1,7 18 10 - - SW 1021,0 3,8
05.12.2019 15:00:00 3,5 2,1 11 6 14 8 SSW 1021,2 3,7
05.12.2019 14:00:00 2,9 1,6 11 6 18 10 SW 1021,6 3,5
05.12.2019 13:00:00 2,3 1,2 11 6 - - SW 1021,8 3,5
05.12.2019 12:00:00 2,5 1,5 11 6 18 10 SSW 1021,8 3,0
05.12.2019 11:00:00 1,0 0,7 11 6 14 8 SSW 1022,5 3,5
05.12.2019 10:00:00 -0,4 -0,4 8 4 - - SW 1023,0 2,5
05.12.2019 09:00:00 - - - - - - - - -
05.12.2019 08:00:00 -0,6 -0,6 7 4 14 8 WSW 1022,6 0,3
05.12.2019 07:00:00 -0,4 -0,4 9 5 - - SW 1021,8 0,3
05.12.2019 06:00:00 -0,2 -0,2 7 4 11 6 SW 1021,5 0,3
05.12.2019 05:00:00 -0,3 -0,3 11 6 14 8 WSW 1021,8 0,3
05.12.2019 04:00:00 -0,8 -0,8 7 4 - - SW 1021,2 0,3
05.12.2019 03:00:00 -0,9 -0,9 11 6 14 8 WSW 1021,1 0,3
05.12.2019 02:00:00 -1,4 -1,3 7 4 14 8 SW 1021,2 0,3
05.12.2019 01:00:00 -1,6 -1,6 4 2 - - N 1021,1 0,3
05.12.2019 00:00:00 -1,3 -1,2 4 2 7 4 N 1021,2 0,2
04.12.2019 23:00:00 -0,7 -0,7 4 2 7 4 N 1021,2 0,2
04.12.2019 22:00:00 -0,7 -0,7 4 2 - - N 1021,1 0,1
04.12.2019 21:00:00 0,1 0,1 4 2 7 4 N 1021,5 0,1
04.12.2019 20:00:00 0,6 0,6 4 2 11 6 N 1021,0 0,1
04.12.2019 19:00:00 1,1 1,1 4 2 - - N 1021,1 0,2
04.12.2019 18:00:00 1,2 1,2 4 2 11 6 N 1021,2 0,2
04.12.2019 17:00:00 1,5 1,5 4 2 11 6 N 1021,2 0,1
04.12.2019 16:00:00 1,5 1,5 5 3 - - NNE 1021,2 0,1
04.12.2019 15:00:00 1,1 1,1 7 4 11 6 NE 1021,5 0,1
04.12.2019 14:00:00 0,5 0,4 7 4 14 8 ENE 1022,0 0,1
04.12.2019 13:00:00 0,0 0,0 7 4 - - ENE 1022,3 0,1
04.12.2019 12:00:00 0,1 0,1 7 4 11 6 E 1023,2 0,2
04.12.2019 11:00:00 1,7 1,1 4 2 7 4 N 1023,7 5
04.12.2019 10:00:00 0,6 0,3 4 2 - - N 1024,0 5
04.12.2019 09:00:00 -1,3 -1,3 4 2 4 2 N 1023,8 3,7
04.12.2019 08:00:00 -2,1 -2,1 4 2 4 2 N 1024,0 3,7
04.12.2019 07:00:00 -1,9 -1,9 0 0 - - N 1024,2 3,5
04.12.2019 06:00:00 -1,8 -1,8 2 1 0 0 - 1024,2 2,8
04.12.2019 05:00:00 -1,4 -1,3 0 0 0 0 N 1024,5 1,4
04.12.2019 04:00:00 -1,3 -1,3 4 2 - - N 1024,7 1,1
04.12.2019 03:00:00 -1,1 -1,1 4 2 4 2 N 1025,5 0,2
04.12.2019 02:00:00 -1,0 -1,0 4 2 4 2 N 1025,5 0,4
04.12.2019 01:00:00 0,4 0,4 2 1 - - - 1026,0 6
04.12.2019 00:00:00 -0,5 -0,5 4 2 4 2 N 1027,0 0,6
03.12.2019 23:00:00 -0,2 -0,2 4 2 4 2 N 1027,0 1,2
03.12.2019 22:00:00 0,4 0,4 2 1 - - - 1027,2 3,9
03.12.2019 21:00:00 1,0 1,0 4 2 7 4 N 1027,5 0,4
03.12.2019 20:00:00 1,7 1,7 4 2 7 4 N 1027,5 0,6
03.12.2019 19:00:00 2,9 2,9 5 3 - - - 1028,0 2,0
03.12.2019 18:00:00 3,5 3,5 4 2 14 8 N 1028,0 0,2
03.12.2019 17:00:00 3,7 3,7 4 2 7 4 - 1028,0 0,2
03.12.2019 16:00:00 4,1 3,7 4 2 - - N 1028,0 3,8
03.12.2019 15:00:00 4,6 4,2 7 4 14 8 SSW 1028,2 2,7
03.12.2019 14:00:00 4,7 4,4 4 2 11 6 N 1028,9 2,2
03.12.2019 13:00:00 4,3 4,2 9 5 - - SW 1029,3 1,2

tt = Température de l'air
td = dewpoint
ff = Vitesse du vent
fx = gusts
dd = Direction du vent
ppp = reduced air pressure
vv = visibility

stations d'obs. à proximité